Weather in Puktysh

Russia / Kurgan Oblast     55°28′22″N   62°42′10″E
temp.,
°C
wind,
m/s
gust,
m/s
humid.,
%
clouds,
%
prec.,
mm/h
press.,
hPa
HPBL,
m
8 may, sat
sat823:00+13s33464 0.0 101919
02:00+11ssw225182 0.0 101914
05:00+10ssw2250100 0.0 101912
08:00+14s3442100 0.0 1019205
11:00+19sse333199 0.0 1018962
14:00+20s2227100 0.0 10172174
17:00+19sse112782 0.0 10162144
20:00+17ene1136100 0.0 101611
9 may, sun
sun923:00+15ne2236100 0.0 101610
02:00+13nne2240100 0.0 101518
05:00+13nne3443100 0.0 101555
08:00+15nne3544100 0.0 1016210
11:00+20ne5634100 0.0 1015971
14:00+22ene672893 0.0 10152922
17:00+17ese584996 0.1 1017530
20:00+16sse4659100 0.0 1018261
10 may, mon
mon1023:00+14nw2263100 0.0 101837
02:00+12nne337299 0.0 101947
05:00+11ne367999 0.0 1020105
08:00+14ene5752100 0.0 1021418
11:00+18ene5637100 0.0 10221272
14:00+19ene663096 0.0 10221665
17:00+18e563034 0.0 10231388
20:00+15ene34435 0.0 102456
11 may, tue
tue1123:00+12ene33460 0.0 102520
02:00+10ese22525 0.0 102515
05:00+9sw225626 0.0 102510
08:00+14sw3446100 0.0 1026209
11:00+18sw4533100 0.0 1025960
14:00+20wsw4531100 0.0 10241433
17:00+21wnw463598 0.0 10242139
20:00+17nnw611634 0.1 1025633
12 may, wed
wed1223:00+11n512775 0.1 1027492
02:00+8nnw398438 0.0 1028191
05:00+7nnw388380 0.0 1029159
08:00+12n355560 0.0 1030369
11:00+16nw5738100 0.0 10281535
14:00+15nnw574082 0.0 10281136
17:00+16nnw6754100 0.0 10271141
20:00+13nnw4971100 0.0 1027452